contact:dominique.lefevre@mio.osupytheas.fr, maurice.libes@osupytheas.fr, didier.mallarino@osupytheas.fr
Project:EMSO http://www.emso-fr.org/EMSO-France
Depth: 2436.0 m
Title:EMSO Ligure Ouest : Data MII capteur MICROCAT
DateTime_Computer,Latitude,Longitude,Temperature,Conductivity,Pressure,DateTime_Instrument
DateTime_Computer,Latitude,Longitude,degC,S m-1,dbar,DateTime_Instrument
2021-05-05T00:01:01Z,42.805,6.029,13.2982,4.59988,2470.31,2021-5-05T02:02:12Z
2021-05-05T00:04:05Z,42.805,6.029,13.2982,4.59989,2470.297,2021-5-05T02:05:15Z
2021-05-05T00:07:08Z,42.805,6.029,13.2980,4.59988,2470.343,2021-5-05T02:08:18Z
2021-05-05T00:10:11Z,42.805,6.029,13.2985,4.59988,2470.32,2021-5-05T02:11:21Z
2021-05-05T00:13:14Z,42.805,6.029,13.2985,4.59989,2470.334,2021-5-05T02:14:24Z
2021-05-05T00:16:17Z,42.805,6.029,13.2983,4.59988,2470.334,2021-5-05T02:17:27Z
2021-05-05T00:19:20Z,42.805,6.029,13.2984,4.59989,2470.32,2021-5-05T02:20:30Z
2021-05-05T00:22:23Z,42.805,6.029,13.2982,4.59988,2470.273,2021-5-05T02:23:34Z
2021-05-05T00:25:26Z,42.805,6.029,13.2982,4.59988,2470.32,2021-5-05T02:26:37Z
2021-05-05T00:28:30Z,42.805,6.029,13.2985,4.59989,2470.32,2021-5-05T02:29:40Z
2021-05-05T00:31:33Z,42.805,6.029,13.2985,4.59989,2470.343,2021-5-05T02:32:43Z
2021-05-05T00:34:36Z,42.805,6.029,13.2982,4.59988,2470.334,2021-5-05T02:35:46Z
2021-05-05T00:37:39Z,42.805,6.029,13.2985,4.59988,2470.357,2021-5-05T02:38:49Z
2021-05-05T00:40:42Z,42.805,6.029,13.2982,4.59988,2470.38,2021-5-05T02:41:52Z
2021-05-05T00:43:45Z,42.805,6.029,13.2985,4.59989,2470.343,2021-5-05T02:44:55Z
2021-05-05T00:46:48Z,42.805,6.029,13.2982,4.59989,2470.343,2021-5-05T02:47:58Z
2021-05-05T00:49:51Z,42.805,6.029,13.2986,4.59989,2470.343,2021-5-05T02:51:02Z
2021-05-05T00:52:55Z,42.805,6.029,13.2986,4.59989,2470.334,2021-5-05T02:54:05Z
2021-05-05T00:55:58Z,42.805,6.029,13.2986,4.59989,2470.343,2021-5-05T02:57:08Z
2021-05-05T00:59:01Z,42.805,6.029,13.2987,4.59990,2470.357,2021-5-05T03:00:11Z
2021-05-05T01:02:04Z,42.805,6.029,13.2979,4.59989,2470.357,2021-5-05T03:03:14Z
2021-05-05T01:05:07Z,42.805,6.029,13.2986,4.59990,2470.32,2021-5-05T03:06:17Z
2021-05-05T01:08:10Z,42.805,6.029,13.2984,4.59991,2470.38,2021-5-05T03:09:20Z
2021-05-05T01:11:13Z,42.805,6.029,13.2982,4.59990,2470.38,2021-5-05T03:12:23Z
2021-05-05T01:14:16Z,42.805,6.029,13.2987,4.59989,2470.357,2021-5-05T03:15:27Z
2021-05-05T01:17:19Z,42.805,6.029,13.2987,4.59989,2470.38,2021-5-05T03:18:30Z
2021-05-05T01:20:23Z,42.805,6.029,13.2983,4.59988,2470.366,2021-5-05T03:21:33Z
2021-05-05T01:23:26Z,42.805,6.029,13.2982,4.59989,2470.343,2021-5-05T03:24:36Z
2021-05-05T01:26:29Z,42.805,6.029,13.2984,4.59990,2470.38,2021-5-05T03:27:39Z
2021-05-05T01:29:32Z,42.805,6.029,13.2985,4.59989,2470.357,2021-5-05T03:30:42Z
2021-05-05T01:32:35Z,42.805,6.029,13.2987,4.59990,2470.357,2021-5-05T03:33:45Z
2021-05-05T01:35:38Z,42.805,6.029,13.2982,4.59991,2470.38,2021-5-05T03:36:48Z
2021-05-05T01:38:41Z,42.805,6.029,13.2983,4.59989,2470.38,2021-5-05T03:39:51Z
2021-05-05T01:41:44Z,42.805,6.029,13.2986,4.59991,2470.39,2021-5-05T03:42:55Z
2021-05-05T01:44:48Z,42.805,6.029,13.2981,4.59991,2470.366,2021-5-05T03:45:58Z
2021-05-05T01:47:51Z,42.805,6.029,13.2986,4.59989,2470.39,2021-5-05T03:49:01Z
2021-05-05T01:50:54Z,42.805,6.029,13.2987,4.59989,2470.38,2021-5-05T03:52:04Z
2021-05-05T01:53:57Z,42.805,6.029,13.2983,4.59989,2470.366,2021-5-05T03:55:07Z
2021-05-05T01:57:00Z,42.805,6.029,13.2986,4.59991,2470.366,2021-5-05T03:58:10Z
2021-05-05T02:00:03Z,42.805,6.029,13.2987,4.59990,2470.38,2021-5-05T04:01:13Z
2021-05-05T02:03:06Z,42.805,6.029,13.2983,4.59989,2470.404,2021-5-05T04:04:16Z
2021-05-05T02:06:09Z,42.805,6.029,13.2985,4.59990,2470.366,2021-5-05T04:07:20Z
2021-05-05T02:09:12Z,42.805,6.029,13.2986,4.59990,2470.413,2021-5-05T04:10:23Z
2021-05-05T02:12:16Z,42.805,6.029,13.2983,4.59989,2470.366,2021-5-05T04:13:26Z
2021-05-05T02:15:19Z,42.805,6.029,13.2987,4.59990,2470.39,2021-5-05T04:16:29Z
2021-05-05T02:18:22Z,42.805,6.029,13.2983,4.59990,2470.38,2021-5-05T04:19:32Z
2021-05-05T02:21:25Z,42.805,6.029,13.2988,4.59990,2470.413,2021-5-05T04:22:35Z
2021-05-05T02:24:28Z,42.805,6.029,13.2987,4.59990,2470.427,2021-5-05T04:25:38Z
2021-05-05T02:27:31Z,42.805,6.029,13.2987,4.59990,2470.38,2021-5-05T04:28:41Z
2021-05-05T02:30:34Z,42.805,6.029,13.2989,4.59990,2470.366,2021-5-05T04:31:44Z
2021-05-05T02:33:37Z,42.805,6.029,13.2985,4.59989,2470.366,2021-5-05T04:34:48Z
2021-05-05T02:36:41Z,42.805,6.029,13.2983,4.59991,2470.427,2021-5-05T04:37:51Z
2021-05-05T02:39:44Z,42.805,6.029,13.2984,4.59991,2470.413,2021-5-05T04:40:54Z
2021-05-05T02:42:47Z,42.805,6.029,13.2987,4.59991,2470.39,2021-5-05T04:43:57Z
2021-05-05T02:45:50Z,42.805,6.029,13.2984,4.59991,2470.399,2021-5-05T04:47:00Z
2021-05-05T02:48:53Z,42.805,6.029,13.2985,4.59990,2470.427,2021-5-05T04:50:03Z
2021-05-05T02:51:56Z,42.805,6.029,13.2986,4.59989,2470.413,2021-5-05T04:53:06Z
2021-05-05T02:54:59Z,42.805,6.029,13.2982,4.59990,2470.413,2021-5-05T04:56:09Z
2021-05-05T02:58:02Z,42.805,6.029,13.2986,4.59990,2470.427,2021-5-05T04:59:13Z
2021-05-05T03:01:05Z,42.805,6.029,13.2985,4.59990,2470.39,2021-5-05T05:02:16Z
2021-05-05T03:04:09Z,42.805,6.029,13.2984,4.59990,2470.437,2021-5-05T05:05:19Z
2021-05-05T03:07:12Z,42.805,6.029,13.2984,4.59989,2470.413,2021-5-05T05:08:22Z
2021-05-05T03:10:15Z,42.805,6.029,13.2983,4.59993,2470.413,2021-5-05T05:11:25Z
2021-05-05T03:13:18Z,42.805,6.029,13.2987,4.59991,2470.413,2021-5-05T05:14:28Z
2021-05-05T03:16:21Z,42.805,6.029,13.2986,4.59990,2470.45,2021-5-05T05:17:31Z
2021-05-05T03:19:24Z,42.805,6.029,13.2982,4.59989,2470.413,2021-5-05T05:20:34Z
2021-05-05T03:22:27Z,42.805,6.029,13.2983,4.59989,2470.39,2021-5-05T05:23:37Z
2021-05-05T03:25:30Z,42.805,6.029,13.2987,4.59990,2470.427,2021-5-05T05:26:41Z
2021-05-05T03:28:34Z,42.805,6.029,13.2983,4.59991,2470.413,2021-5-05T05:29:44Z
2021-05-05T03:31:37Z,42.805,6.029,13.2987,4.59991,2470.427,2021-5-05T05:32:47Z
2021-05-05T03:34:40Z,42.805,6.029,13.2983,4.59990,2470.413,2021-5-05T05:35:50Z
2021-05-05T03:37:43Z,42.805,6.029,13.2986,4.59990,2470.366,2021-5-05T05:38:53Z
2021-05-05T03:40:46Z,42.805,6.029,13.2984,4.59990,2470.413,2021-5-05T05:41:56Z
2021-05-05T03:43:49Z,42.805,6.029,13.2985,4.59990,2470.427,2021-5-05T05:44:59Z
2021-05-05T03:46:52Z,42.805,6.029,13.2986,4.59990,2470.413,2021-5-05T05:48:02Z
2021-05-05T03:49:55Z,42.805,6.029,13.2988,4.59991,2470.427,2021-5-05T05:51:06Z
2021-05-05T03:52:59Z,42.805,6.029,13.2988,4.59991,2470.413,2021-5-05T05:54:09Z
2021-05-05T03:56:02Z,42.805,6.029,13.2987,4.59992,2470.437,2021-5-05T05:57:12Z
2021-05-05T03:59:05Z,42.805,6.029,13.2989,4.59991,2470.45,2021-5-05T06:00:15Z
2021-05-05T04:02:08Z,42.805,6.029,13.2984,4.59990,2470.427,2021-5-05T06:03:18Z
2021-05-05T04:05:11Z,42.805,6.029,13.2983,4.59992,2470.366,2021-5-05T06:06:21Z
2021-05-05T04:08:14Z,42.805,6.029,13.2986,4.59990,2470.413,2021-5-05T06:09:24Z
2021-05-05T04:11:17Z,42.805,6.029,13.2985,4.59990,2470.39,2021-5-05T06:12:27Z
2021-05-05T04:14:20Z,42.805,6.029,13.2985,4.59990,2470.404,2021-5-05T06:15:31Z
2021-05-05T04:17:23Z,42.805,6.029,13.2986,4.59990,2470.413,2021-5-05T06:18:34Z
2021-05-05T04:20:27Z,42.805,6.029,13.2983,4.59989,2470.413,2021-5-05T06:21:37Z
2021-05-05T04:23:30Z,42.805,6.029,13.2986,4.59990,2470.427,2021-5-05T06:24:40Z
2021-05-05T04:26:33Z,42.805,6.029,13.2984,4.59991,2470.404,2021-5-05T06:27:43Z
2021-05-05T04:29:36Z,42.805,6.029,13.2987,4.59991,2470.366,2021-5-05T06:30:46Z
2021-05-05T04:32:39Z,42.805,6.029,13.2986,4.59990,2470.413,2021-5-05T06:33:49Z
2021-05-05T04:35:42Z,42.805,6.029,13.2982,4.59990,2470.399,2021-5-05T06:36:52Z
2021-05-05T04:38:45Z,42.805,6.029,13.2983,4.59990,2470.427,2021-5-05T06:39:55Z
2021-05-05T04:41:48Z,42.805,6.029,13.2985,4.59992,2470.427,2021-5-05T06:42:59Z
2021-05-05T04:44:51Z,42.805,6.029,13.2985,4.59991,2470.413,2021-5-05T06:46:02Z
2021-05-05T04:47:55Z,42.805,6.029,13.2986,4.59991,2470.404,2021-5-05T06:49:05Z
2021-05-05T04:50:58Z,42.805,6.029,13.2986,4.59991,2470.413,2021-5-05T06:52:08Z
2021-05-05T04:54:01Z,42.805,6.029,13.2985,4.59993,2470.413,2021-5-05T06:55:11Z
2021-05-05T04:57:04Z,42.805,6.029,13.2985,4.59991,2470.366,2021-5-05T06:58:14Z
2021-05-05T05:00:07Z,42.805,6.029,13.2982,4.59991,2470.39,2021-5-05T07:01:17Z
2021-05-05T05:03:10Z,42.805,6.029,13.2988,4.59991,2470.404,2021-5-05T07:04:20Z
2021-05-05T05:06:13Z,42.805,6.029,13.2982,4.59991,2470.39,2021-5-05T07:07:24Z
2021-05-05T05:09:16Z,42.805,6.029,13.2988,4.59991,2470.39,2021-5-05T07:10:27Z
2021-05-05T05:12:20Z,42.805,6.029,13.2987,4.59991,2470.413,2021-5-05T07:13:30Z
2021-05-05T05:15:23Z,42.805,6.029,13.2989,4.59991,2470.404,2021-5-05T07:16:33Z
2021-05-05T05:18:26Z,42.805,6.029,13.2986,4.59991,2470.404,2021-5-05T07:19:36Z
2021-05-05T05:21:29Z,42.805,6.029,13.2983,4.59991,2470.427,2021-5-05T07:22:39Z
2021-05-05T05:24:32Z,42.805,6.029,13.2986,4.59991,2470.366,2021-5-05T07:25:42Z
2021-05-05T05:27:35Z,42.805,6.029,13.2985,4.59991,2470.404,2021-5-05T07:28:45Z
2021-05-05T05:30:38Z,42.805,6.029,13.2989,4.59991,2470.39,2021-5-05T07:31:49Z
2021-05-05T05:33:41Z,42.805,6.029,13.2984,4.59992,2470.39,2021-5-05T07:34:52Z
2021-05-05T05:36:45Z,42.805,6.029,13.2988,4.59991,2470.39,2021-5-05T07:37:55Z
2021-05-05T05:39:48Z,42.805,6.029,13.2990,4.59991,2470.404,2021-5-05T07:40:58Z
2021-05-05T05:42:51Z,42.805,6.029,13.2987,4.59991,2470.413,2021-5-05T07:44:01Z
2021-05-05T05:45:54Z,42.805,6.029,13.2983,4.59991,2470.366,2021-5-05T07:47:04Z
2021-05-05T05:48:57Z,42.805,6.029,13.2986,4.59991,2470.413,2021-5-05T07:50:07Z
2021-05-05T05:52:00Z,42.805,6.029,13.2988,4.59992,2470.404,2021-5-05T07:53:10Z
2021-05-05T05:55:03Z,42.805,6.029,13.2986,4.59992,2470.404,2021-5-05T07:56:13Z
2021-05-05T05:58:06Z,42.805,6.029,13.2990,4.59993,2470.39,2021-5-05T07:59:17Z
2021-05-05T06:01:09Z,42.805,6.029,13.2986,4.59991,2470.366,2021-5-05T08:02:20Z
2021-05-05T06:04:13Z,42.805,6.029,13.2982,4.59991,2470.404,2021-5-05T08:05:23Z
2021-05-05T06:07:16Z,42.805,6.029,13.2985,4.59992,2470.39,2021-5-05T08:08:26Z
2021-05-05T06:10:19Z,42.805,6.029,13.2983,4.59993,2470.404,2021-5-05T08:11:29Z
2021-05-05T06:13:22Z,42.805,6.029,13.2987,4.59991,2470.413,2021-5-05T08:14:32Z
2021-05-05T06:16:25Z,42.805,6.029,13.2986,4.59991,2470.39,2021-5-05T08:17:35Z
2021-05-05T06:19:28Z,42.805,6.029,13.2984,4.59991,2470.38,2021-5-05T08:20:38Z
2021-05-05T06:22:31Z,42.805,6.029,13.2985,4.59993,2470.366,2021-5-05T08:23:41Z
2021-05-05T06:25:34Z,42.805,6.029,13.2987,4.59991,2470.39,2021-5-05T08:26:45Z
2021-05-05T06:28:38Z,42.805,6.029,13.2986,4.59991,2470.366,2021-5-05T08:29:48Z
2021-05-05T06:31:41Z,42.805,6.029,13.2985,4.59992,2470.38,2021-5-05T08:32:51Z
2021-05-05T06:34:44Z,42.805,6.029,13.2984,4.59991,2470.366,2021-5-05T08:35:54Z
2021-05-05T06:37:47Z,42.805,6.029,13.2984,4.59991,2470.366,2021-5-05T08:38:57Z
2021-05-05T06:40:50Z,42.805,6.029,13.2987,4.59991,2470.366,2021-5-05T08:42:00Z
2021-05-05T06:43:53Z,42.805,6.029,13.2987,4.59992,2470.366,2021-5-05T08:45:03Z
2021-05-05T06:46:56Z,42.805,6.029,13.2987,4.59993,2470.38,2021-5-05T08:48:06Z
2021-05-05T06:49:59Z,42.805,6.029,13.2982,4.59991,2470.38,2021-5-05T08:51:10Z
2021-05-05T06:53:02Z,42.805,6.029,13.2986,4.59990,2470.38,2021-5-05T08:54:13Z
2021-05-05T06:56:06Z,42.805,6.029,13.2987,4.59991,2470.38,2021-5-05T08:57:16Z
2021-05-05T06:59:09Z,42.805,6.029,13.2984,4.59992,2470.366,2021-5-05T09:00:19Z
2021-05-05T07:02:12Z,42.805,6.029,13.2986,4.59991,2470.366,2021-5-05T09:03:22Z
2021-05-05T07:05:15Z,42.805,6.029,13.2984,4.59991,2470.38,2021-5-05T09:06:25Z
2021-05-05T07:08:18Z,42.805,6.029,13.2987,4.59992,2470.343,2021-5-05T09:09:28Z
2021-05-05T07:11:21Z,42.805,6.029,13.2986,4.59991,2470.343,2021-5-05T09:12:31Z
2021-05-05T07:14:24Z,42.805,6.029,13.2985,4.59991,2470.343,2021-5-05T09:15:34Z
2021-05-05T07:17:27Z,42.805,6.029,13.2988,4.59991,2470.366,2021-5-05T09:18:38Z
2021-05-05T07:20:31Z,42.805,6.029,13.2986,4.59991,2470.343,2021-5-05T09:21:41Z
2021-05-05T07:23:34Z,42.805,6.029,13.2985,4.59991,2470.38,2021-5-05T09:24:44Z
2021-05-05T07:26:37Z,42.805,6.029,13.2986,4.59991,2470.343,2021-5-05T09:27:47Z
2021-05-05T07:29:40Z,42.805,6.029,13.2988,4.59992,2470.343,2021-5-05T09:30:50Z
2021-05-05T07:32:43Z,42.805,6.029,13.2986,4.59992,2470.357,2021-5-05T09:33:53Z
2021-05-05T07:35:46Z,42.805,6.029,13.2986,4.59994,2470.32,2021-5-05T09:36:56Z
2021-05-05T07:38:49Z,42.805,6.029,13.2982,4.59992,2470.32,2021-5-05T09:39:59Z
2021-05-05T07:41:52Z,42.805,6.029,13.2986,4.59994,2470.343,2021-5-05T09:43:03Z
2021-05-05T07:44:55Z,42.805,6.029,13.2983,4.59992,2470.357,2021-5-05T09:46:06Z
2021-05-05T07:47:59Z,42.805,6.029,13.2985,4.59993,2470.334,2021-5-05T09:49:09Z
2021-05-05T07:51:02Z,42.805,6.029,13.2989,4.59991,2470.343,2021-5-05T09:52:12Z
2021-05-05T07:54:05Z,42.805,6.029,13.2986,4.59993,2470.343,2021-5-05T09:55:15Z
2021-05-05T07:57:08Z,42.805,6.029,13.2986,4.59992,2470.334,2021-5-05T09:58:18Z
2021-05-05T08:00:11Z,42.805,6.029,13.2986,4.59994,2470.334,2021-5-05T10:01:21Z
2021-05-05T08:03:14Z,42.805,6.029,13.2986,4.59990,2470.334,2021-5-05T10:04:24Z
2021-05-05T08:06:17Z,42.805,6.029,13.2986,4.59993,2470.32,2021-5-05T10:07:28Z
2021-05-05T08:09:20Z,42.805,6.029,13.2983,4.59991,2470.33,2021-5-05T10:10:31Z
2021-05-05T08:12:24Z,42.805,6.029,13.2986,4.59991,2470.366,2021-5-05T10:13:34Z
2021-05-05T08:15:27Z,42.805,6.029,13.2991,4.59991,2470.343,2021-5-05T10:16:37Z
2021-05-05T08:18:30Z,42.805,6.029,13.2986,4.59991,2470.357,2021-5-05T10:19:40Z
2021-05-05T08:21:33Z,42.805,6.029,13.2986,4.59991,2470.297,2021-5-05T10:22:43Z
2021-05-05T08:24:36Z,42.805,6.029,13.2987,4.59991,2470.32,2021-5-05T10:25:46Z
2021-05-05T08:27:39Z,42.805,6.029,13.2983,4.59993,2470.357,2021-5-05T10:28:49Z
2021-05-05T08:30:42Z,42.805,6.029,13.2984,4.59991,2470.32,2021-5-05T10:31:52Z
2021-05-05T08:33:45Z,42.805,6.029,13.2986,4.59991,2470.297,2021-5-05T10:34:56Z
2021-05-05T08:36:49Z,42.805,6.029,13.2988,4.59990,2470.297,2021-5-05T10:37:59Z
2021-05-05T08:39:52Z,42.805,6.029,13.2986,4.59993,2470.32,2021-5-05T10:41:02Z
2021-05-05T08:42:55Z,42.805,6.029,13.2983,4.59991,2470.297,2021-5-05T10:44:05Z
2021-05-05T08:45:58Z,42.805,6.029,13.2983,4.59991,2470.31,2021-5-05T10:47:08Z
2021-05-05T08:49:01Z,42.805,6.029,13.2986,4.59995,2470.297,2021-5-05T10:50:11Z
2021-05-05T08:52:04Z,42.805,6.029,13.2989,4.59991,2470.297,2021-5-05T10:53:14Z
2021-05-05T08:55:07Z,42.805,6.029,13.2990,4.59991,2470.32,2021-5-05T10:56:17Z
2021-05-05T08:58:10Z,42.805,6.029,13.2986,4.59991,2470.273,2021-5-05T10:59:21Z
2021-05-05T09:01:14Z,42.805,6.029,13.2983,4.59991,2470.32,2021-5-05T11:02:24Z
2021-05-05T09:04:17Z,42.805,6.029,13.2986,4.59991,2470.273,2021-5-05T11:05:27Z
2021-05-05T09:07:20Z,42.805,6.029,13.2984,4.59991,2470.31,2021-5-05T11:08:30Z
2021-05-05T09:10:23Z,42.805,6.029,13.2987,4.59992,2470.31,2021-5-05T11:11:33Z
2021-05-05T09:13:26Z,42.805,6.029,13.2986,4.59991,2470.32,2021-5-05T11:14:36Z
2021-05-05T09:16:29Z,42.805,6.029,13.2984,4.59991,2470.31,2021-5-05T11:17:39Z
2021-05-05T09:19:32Z,42.805,6.029,13.2983,4.59991,2470.297,2021-5-05T11:20:42Z
2021-05-05T09:22:35Z,42.805,6.029,13.2984,4.59991,2470.297,2021-5-05T11:23:46Z
2021-05-05T09:25:39Z,42.805,6.029,13.2987,4.59992,2470.273,2021-5-05T11:26:49Z
2021-05-05T09:28:42Z,42.805,6.029,13.2983,4.59991,2470.31,2021-5-05T11:29:52Z
2021-05-05T09:31:45Z,42.805,6.029,13.2986,4.59992,2470.334,2021-5-05T11:32:55Z
2021-05-05T09:34:48Z,42.805,6.029,13.2985,4.59991,2470.31,2021-5-05T11:35:58Z
2021-05-05T09:37:51Z,42.805,6.029,13.2983,4.59993,2470.32,2021-5-05T11:39:01Z
2021-05-05T09:40:54Z,42.805,6.029,13.2983,4.59992,2470.32,2021-5-05T11:42:04Z
2021-05-05T09:43:57Z,42.805,6.029,13.2984,4.59991,2470.31,2021-5-05T11:45:07Z
2021-05-05T09:47:00Z,42.805,6.029,13.2987,4.59991,2470.334,2021-5-05T11:48:11Z
2021-05-05T09:50:04Z,42.805,6.029,13.2985,4.59993,2470.287,2021-5-05T11:51:14Z
2021-05-05T09:53:07Z,42.805,6.029,13.2983,4.59992,2470.297,2021-5-05T11:54:17Z
2021-05-05T09:56:10Z,42.805,6.029,13.2987,4.59992,2470.273,2021-5-05T11:57:20Z
2021-05-05T09:59:13Z,42.805,6.029,13.2983,4.59991,2470.297,2021-5-05T12:00:23Z
2021-05-05T10:02:16Z,42.805,6.029,13.2989,4.59992,2470.32,2021-5-05T12:03:26Z
2021-05-05T10:05:19Z,42.805,6.029,13.2986,4.59994,2470.32,2021-5-05T12:06:29Z
2021-05-05T10:08:22Z,42.805,6.029,13.2987,4.59991,2470.297,2021-5-05T12:09:32Z
2021-05-05T10:11:25Z,42.805,6.029,13.2985,4.59991,2470.32,2021-5-05T12:12:36Z
2021-05-05T10:14:28Z,42.805,6.029,13.2990,4.59994,2470.32,2021-5-05T12:15:39Z
2021-05-05T10:17:32Z,42.805,6.029,13.2988,4.59992,2470.334,2021-5-05T12:18:42Z
2021-05-05T10:20:35Z,42.805,6.029,13.2993,4.59991,2470.343,2021-5-05T12:21:45Z
2021-05-05T10:23:38Z,42.805,6.029,13.2986,4.59991,2470.357,2021-5-05T12:24:48Z
2021-05-05T10:26:41Z,42.805,6.029,13.2983,4.59991,2470.297,2021-5-05T12:27:51Z
2021-05-05T10:29:44Z,42.805,6.029,13.2983,4.59991,2470.32,2021-5-05T12:30:54Z
2021-05-05T10:32:47Z,42.805,6.029,13.2983,4.59992,2470.31,2021-5-05T12:33:57Z
2021-05-05T10:35:50Z,42.805,6.029,13.2988,4.59992,2470.334,2021-5-05T12:37:01Z
2021-05-05T10:38:53Z,42.805,6.029,13.2988,4.59994,2470.287,2021-5-05T12:40:04Z
2021-05-05T10:41:57Z,42.805,6.029,13.2988,4.59991,2470.32,2021-5-05T12:43:07Z
2021-05-05T10:45:00Z,42.805,6.029,13.2985,4.59994,2470.32,2021-5-05T12:46:10Z
2021-05-05T10:48:03Z,42.805,6.029,13.2983,4.59993,2470.32,2021-5-05T12:49:13Z
2021-05-05T10:51:06Z,42.805,6.029,13.2987,4.59992,2470.357,2021-5-05T12:52:16Z
2021-05-05T10:54:09Z,42.805,6.029,13.2990,4.59994,2470.297,2021-5-05T12:55:19Z
2021-05-05T10:57:12Z,42.805,6.029,13.2983,4.59991,2470.25,2021-5-05T12:58:22Z
2021-05-05T11:00:15Z,42.805,6.029,13.2990,4.59992,2470.343,2021-5-05T13:01:26Z
2021-05-05T11:03:18Z,42.805,6.029,13.2987,4.59992,2470.334,2021-5-05T13:04:29Z
2021-05-05T11:06:22Z,42.805,6.029,13.2989,4.59991,2470.297,2021-5-05T13:07:32Z
2021-05-05T11:09:25Z,42.805,6.029,13.2983,4.59992,2470.334,2021-5-05T13:10:35Z
2021-05-05T11:12:28Z,42.805,6.029,13.2989,4.59991,2470.32,2021-5-05T13:13:38Z
2021-05-05T11:15:31Z,42.805,6.029,13.2986,4.59992,2470.343,2021-5-05T13:16:41Z
2021-05-05T11:18:34Z,42.805,6.029,13.2989,4.59991,2470.297,2021-5-05T13:19:44Z
2021-05-05T11:21:37Z,42.805,6.029,13.2991,4.59991,2470.287,2021-5-05T13:22:47Z
2021-05-05T11:24:40Z,42.805,6.029,13.2988,4.59991,2470.32,2021-5-05T13:25:51Z
2021-05-05T11:27:43Z,42.805,6.029,13.2989,4.59992,2470.32,2021-5-05T13:28:54Z
2021-05-05T11:30:47Z,42.805,6.029,13.2989,4.59992,2470.334,2021-5-05T13:31:57Z
2021-05-05T11:33:50Z,42.805,6.029,13.2988,4.59991,2470.32,2021-5-05T13:35:00Z
2021-05-05T11:36:53Z,42.805,6.029,13.2987,4.59992,2470.297,2021-5-05T13:38:03Z
2021-05-05T11:39:56Z,42.805,6.029,13.2987,4.59991,2470.334,2021-5-05T13:41:06Z
2021-05-05T11:42:59Z,42.805,6.029,13.2986,4.59991,2470.31,2021-5-05T13:44:09Z
2021-05-05T11:46:02Z,42.805,6.029,13.2983,4.59991,2470.357,2021-5-05T13:47:12Z
2021-05-05T11:49:05Z,42.805,6.029,13.2988,4.59991,2470.343,2021-5-05T13:50:16Z
2021-05-05T11:52:08Z,42.805,6.029,13.2989,4.59991,2470.343,2021-5-05T13:53:19Z
2021-05-05T11:55:12Z,42.805,6.029,13.2983,4.59993,2470.297,2021-5-05T13:56:22Z
2021-05-05T11:58:15Z,42.805,6.029,13.2988,4.59991,2470.357,2021-5-05T13:59:25Z
2021-05-05T12:01:18Z,42.805,6.029,13.2986,4.59992,2470.32,2021-5-05T14:02:28Z
2021-05-05T12:04:21Z,42.805,6.029,13.2987,4.59991,2470.366,2021-5-05T14:05:31Z
2021-05-05T12:07:24Z,42.805,6.029,13.2984,4.59991,2470.334,2021-5-05T14:08:34Z
2021-05-05T12:10:27Z,42.805,6.029,13.2983,4.59991,2470.343,2021-5-05T14:11:37Z
2021-05-05T12:13:30Z,42.805,6.029,13.2985,4.59991,2470.334,2021-5-05T14:14:40Z
2021-05-05T12:16:33Z,42.805,6.029,13.2985,4.59991,2470.32,2021-5-05T14:17:44Z
2021-05-05T12:19:37Z,42.805,6.029,13.2986,4.59991,2470.353,2021-5-05T14:20:47Z
2021-05-05T12:22:40Z,42.805,6.029,13.2986,4.59992,2470.334,2021-5-05T14:23:50Z
2021-05-05T12:25:43Z,42.805,6.029,13.2986,4.59991,2470.343,2021-5-05T14:26:53Z
2021-05-05T12:28:46Z,42.805,6.029,13.2983,4.59991,2470.334,2021-5-05T14:29:56Z
2021-05-05T12:31:49Z,42.805,6.029,13.2982,4.59992,2470.343,2021-5-05T14:32:59Z
2021-05-05T12:34:52Z,42.805,6.029,13.2984,4.59991,2470.343,2021-5-05T14:36:02Z
2021-05-05T12:37:55Z,42.805,6.029,13.2987,4.59992,2470.366,2021-5-05T14:39:05Z
2021-05-05T12:40:58Z,42.805,6.029,13.2985,4.59991,2470.343,2021-5-05T14:42:09Z
2021-05-05T12:44:02Z,42.805,6.029,13.2987,4.59991,2470.357,2021-5-05T14:45:12Z
2021-05-05T12:47:05Z,42.805,6.029,13.2982,4.59991,2470.343,2021-5-05T14:48:15Z
2021-05-05T12:50:08Z,42.805,6.029,13.2986,4.59992,2470.366,2021-5-05T14:51:18Z
2021-05-05T12:53:11Z,42.805,6.029,13.2988,4.59991,2470.38,2021-5-05T14:54:21Z
2021-05-05T12:56:14Z,42.805,6.029,13.2984,4.59992,2470.343,2021-5-05T14:57:24Z
2021-05-05T12:59:17Z,42.805,6.029,13.2987,4.59991,2470.39,2021-5-05T15:00:27Z
2021-05-05T13:02:20Z,42.805,6.029,13.2987,4.59993,2470.343,2021-5-05T15:03:30Z
2021-05-05T13:05:23Z,42.805,6.029,13.2983,4.59993,2470.366,2021-5-05T15:06:34Z
2021-05-05T13:08:27Z,42.805,6.029,13.2988,4.59992,2470.357,2021-5-05T15:09:37Z
2021-05-05T13:11:30Z,42.805,6.029,13.2988,4.59991,2470.39,2021-5-05T15:12:40Z
2021-05-05T13:14:33Z,42.805,6.029,13.2985,4.59991,2470.343,2021-5-05T15:15:43Z
2021-05-05T13:17:36Z,42.805,6.029,13.2987,4.59991,2470.366,2021-5-05T15:18:46Z
2021-05-05T13:20:39Z,42.805,6.029,13.2988,4.59992,2470.366,2021-5-05T15:21:49Z
2021-05-05T13:23:42Z,42.805,6.029,13.2990,4.59993,2470.366,2021-5-05T15:24:52Z
2021-05-05T13:26:45Z,42.805,6.029,13.2988,4.59992,2470.366,2021-5-05T15:27:55Z
2021-05-05T13:29:48Z,42.805,6.029,13.2986,4.59992,2470.404,2021-5-05T15:30:59Z
2021-05-05T13:32:52Z,42.805,6.029,13.2990,4.59992,2470.39,2021-5-05T15:34:02Z
2021-05-05T13:35:55Z,42.805,6.029,13.2989,4.59994,2470.366,2021-5-05T15:37:05Z
2021-05-05T13:38:58Z,42.805,6.029,13.2986,4.59994,2470.38,2021-5-05T15:40:08Z
2021-05-05T13:42:01Z,42.805,6.029,13.2990,4.59993,2470.39,2021-5-05T15:43:11Z
2021-05-05T13:45:04Z,42.805,6.029,13.2985,4.59992,2470.38,2021-5-05T15:46:14Z
2021-05-05T13:48:07Z,42.805,6.029,13.2991,4.59993,2470.366,2021-5-05T15:49:17Z
2021-05-05T13:51:10Z,42.805,6.029,13.2986,4.59992,2470.404,2021-5-05T15:52:20Z
2021-05-05T13:54:13Z,42.805,6.029,13.2985,4.59993,2470.39,2021-5-05T15:55:24Z
2021-05-05T13:57:16Z,42.805,6.029,13.2989,4.59992,2470.366,2021-5-05T15:58:27Z
2021-05-05T14:00:20Z,42.805,6.029,13.2987,4.59992,2470.366,2021-5-05T16:01:30Z
2021-05-05T14:03:23Z,42.805,6.029,13.2986,4.59992,2470.39,2021-5-05T16:04:33Z
2021-05-05T14:06:26Z,42.805,6.029,13.2990,4.59993,2470.366,2021-5-05T16:07:36Z
2021-05-05T14:09:29Z,42.805,6.029,13.2987,4.59992,2470.404,2021-5-05T16:10:39Z
2021-05-05T14:12:32Z,42.805,6.029,13.2983,4.59993,2470.366,2021-5-05T16:13:42Z
2021-05-05T14:15:35Z,42.805,6.029,13.2986,4.59993,2470.376,2021-5-05T16:16:45Z
2021-05-05T14:18:38Z,42.805,6.029,13.2990,4.59991,2470.39,2021-5-05T16:19:49Z
2021-05-05T14:21:41Z,42.805,6.029,13.2989,4.59991,2470.39,2021-5-05T16:22:52Z
2021-05-05T14:24:45Z,42.805,6.029,13.2987,4.59992,2470.39,2021-5-05T16:25:55Z
2021-05-05T14:27:48Z,42.805,6.029,13.2987,4.59991,2470.39,2021-5-05T16:28:58Z
2021-05-05T14:30:51Z,42.805,6.029,13.2984,4.59991,2470.39,2021-5-05T16:32:01Z
2021-05-05T14:33:54Z,42.805,6.029,13.2985,4.59990,2470.38,2021-5-05T16:35:04Z
2021-05-05T14:36:57Z,42.805,6.029,13.2990,4.59990,2470.399,2021-5-05T16:38:07Z
2021-05-05T14:40:00Z,42.805,6.029,13.2986,4.59991,2470.366,2021-5-05T16:41:10Z
2021-05-05T14:43:03Z,42.805,6.029,13.2989,4.59989,2470.404,2021-5-05T16:44:14Z
2021-05-05T14:46:06Z,42.805,6.029,13.2985,4.59990,2470.413,2021-5-05T16:47:17Z
2021-05-05T14:49:10Z,42.805,6.029,13.2986,4.59991,2470.39,2021-5-05T16:50:20Z
2021-05-05T14:52:13Z,42.805,6.029,13.2988,4.59991,2470.366,2021-5-05T16:53:23Z
2021-05-05T14:55:16Z,42.805,6.029,13.2988,4.59991,2470.404,2021-5-05T16:56:26Z
2021-05-05T14:58:19Z,42.805,6.029,13.2983,4.59990,2470.39,2021-5-05T16:59:29Z
2021-05-05T15:01:22Z,42.805,6.029,13.2983,4.59991,2470.413,2021-5-05T17:02:32Z
2021-05-05T15:04:25Z,42.805,6.029,13.2989,4.59990,2470.366,2021-5-05T17:05:35Z
2021-05-05T15:07:28Z,42.805,6.029,13.2985,4.59991,2470.404,2021-5-05T17:08:39Z
2021-05-05T15:10:31Z,42.805,6.029,13.2991,4.59991,2470.366,2021-5-05T17:11:42Z
2021-05-05T15:13:35Z,42.805,6.029,13.2988,4.59990,2470.427,2021-5-05T17:14:45Z